Location: 22
(39.7117°N, 89.5929°W)
Time: 22:25:31
(UTC-06:00)

Courier 1B - Visible Passes

Search period start: 29 January 2023 00:00
Search period end: 08 February 2023 00:00
Orbit: 962 x 1209 km, 28.3° (Epoch: 29 January)

Date Brightness Start Highest point End Pass type
(mag) Time Alt. Az. Time Alt. Az. Time Alt. Az.
29 Jan 9.8 19:09:46 10° WSW 19:13:37 16° SSW 19:17:35 10° SSE visible
30 Jan 9.7 18:15:37 10° WSW 18:20:04 19° SSW 18:24:38 10° SSE visible
01 Feb 10.0 18:23:25 10° SW 18:26:01 13° SSW 18:28:40 10° S visible
